DLH7PJ EDDH-EDDL

Flight info

Callsign DLH7PJ
Flight time 0h 43m
Altitude 28000
Route IDEKO7G/33 IDEKO N850 ROBEG DCT DENOL T851 HALME HALME1A
Aircraft A320/M-SDE3FGHIRWY/LB1

Departure

Time 2026-05-05 15:04
Airport Hamburg Helmut Schmidt Airport (EDDH)

Arrival

Time 2026-05-05 15:47
Airport Düsseldorf Airport (EDDL)
Time Latitude Longitude Altitude Speed Heading
2026-05-05 14:27 53.62775 10.00278 48 ft 0 kts 63°
2026-05-05 14:53 53.62774 10.00274 49 ft 3 kts 63°
2026-05-05 14:53 53.62767 10.00250 49 ft 2 kts 63°
2026-05-05 14:53 53.62760 10.00226 47 ft 2 kts 63°
2026-05-05 14:54 53.62753 10.00203 46 ft 2 kts 67°
2026-05-05 14:54 53.62744 10.00183 47 ft 2 kts 26°
2026-05-05 14:54 53.62730 10.00175 49 ft 2 kts 353°
2026-05-05 14:54 53.62720 10.00177 48 ft 0 kts 340°
2026-05-05 14:58 53.62725 10.00174 48 ft 5 kts 338°
2026-05-05 14:58 53.62772 10.00135 48 ft 8 kts 333°
2026-05-05 14:58 53.62835 10.00076 48 ft 11 kts 326°
2026-05-05 14:59 53.62848 9.99974 48 ft 8 kts 249°
2026-05-05 14:59 53.62847 9.99969 48 ft 0 kts 249°
2026-05-05 14:59 53.62846 9.99964 48 ft 1 kts 248°
2026-05-05 14:59 53.62826 9.99894 46 ft 9 kts 244°
2026-05-05 15:00 53.62827 9.99780 43 ft 7 kts 321°
2026-05-05 15:00 53.62834 9.99773 44 ft 0 kts 330°
2026-05-05 15:03 53.62868 9.99742 45 ft 28 kts 332°
2026-05-05 15:03 53.63096 9.99547 46 ft 79 kts 332°
2026-05-05 15:03 53.64061 9.98713 52 ft 151 kts 333°
2026-05-05 15:03 53.64744 9.98128 166 ft 170 kts 336°
2026-05-05 15:04 53.65810 9.97257 806 ft 170 kts 337°
2026-05-05 15:04 53.66873 9.96367 1476 ft 175 kts 336°
2026-05-05 15:04 53.68025 9.95378 1866 ft 198 kts 335°
2026-05-05 15:04 53.69306 9.94272 2376 ft 211 kts 335°
2026-05-05 15:05 53.71453 9.90956 3881 ft 225 kts 285°
2026-05-05 15:05 53.71235 9.87283 4510 ft 256 kts 255°
2026-05-05 15:05 53.70870 9.85313 4978 ft 264 kts 252°
2026-05-05 15:06 53.70253 9.82372 5910 ft 266 kts 251°
2026-05-05 15:06 53.69614 9.79434 6855 ft 267 kts 250°
2026-05-05 15:06 53.68976 9.76476 7759 ft 270 kts 250°
2026-05-05 15:06 53.68346 9.73481 8630 ft 273 kts 251°
2026-05-05 15:07 53.67733 9.70479 9479 ft 276 kts 251°
2026-05-05 15:07 53.67114 9.67393 9820 ft 278 kts 251°
2026-05-05 15:07 53.66496 9.64281 9905 ft 290 kts 250°
2026-05-05 15:07 53.65480 9.61153 10048 ft 318 kts 232°
2026-05-05 15:08 53.63781 9.58646 10561 ft 333 kts 212°
2026-05-05 15:08 53.61603 9.57236 11253 ft 342 kts 192°
2026-05-05 15:08 53.59227 9.56703 11998 ft 346 kts 189°
2026-05-05 15:08 53.56821 9.56228 12728 ft 350 kts 188°
2026-05-05 15:09 53.54389 9.55761 13458 ft 354 kts 188°
2026-05-05 15:09 53.51936 9.55290 14105 ft 358 kts 189°
2026-05-05 15:09 53.49440 9.54808 14764 ft 361 kts 189°
2026-05-05 15:09 53.46935 9.54322 15411 ft 364 kts 189°
2026-05-05 15:10 53.44405 9.53826 16057 ft 367 kts 189°
2026-05-05 15:10 53.41859 9.53324 16690 ft 371 kts 189°
2026-05-05 15:10 53.39283 9.52819 17315 ft 374 kts 189°
2026-05-05 15:10 53.36689 9.52314 17940 ft 377 kts 189°
2026-05-05 15:11 53.34078 9.51804 18507 ft 380 kts 189°
2026-05-05 15:11 53.31447 9.51286 19038 ft 382 kts 189°
2026-05-05 15:11 53.28793 9.50765 19567 ft 385 kts 189°
2026-05-05 15:11 53.26127 9.50243 20095 ft 387 kts 189°
2026-05-05 15:12 53.23440 9.49717 20616 ft 390 kts 189°
2026-05-05 15:12 53.20732 9.49186 21140 ft 392 kts 189°
2026-05-05 15:12 53.18023 9.48656 21652 ft 394 kts 189°
2026-05-05 15:12 53.15320 9.48127 22157 ft 397 kts 189°
2026-05-05 15:13 53.12573 9.47593 22663 ft 399 kts 189°
2026-05-05 15:13 53.09816 9.47059 23161 ft 401 kts 189°
2026-05-05 15:13 53.07034 9.46520 23627 ft 403 kts 189°
2026-05-05 15:13 53.04245 9.45981 24051 ft 404 kts 189°
2026-05-05 15:14 53.01447 9.45442 24472 ft 405 kts 189°
2026-05-05 15:14 52.98643 9.44900 24884 ft 407 kts 190°
2026-05-05 15:14 52.95828 9.44328 25285 ft 408 kts 190°
2026-05-05 15:14 52.93013 9.43727 25686 ft 409 kts 191°
2026-05-05 15:15 52.90185 9.43110 26099 ft 410 kts 191°
2026-05-05 15:15 52.87337 9.42485 26531 ft 412 kts 191°
2026-05-05 15:15 52.84506 9.41866 26928 ft 414 kts 191°
2026-05-05 15:15 52.81650 9.41251 27318 ft 415 kts 190°
2026-05-05 15:16 52.78776 9.40637 27696 ft 417 kts 190°
2026-05-05 15:16 52.75972 9.40041 27868 ft 416 kts 190°
2026-05-05 15:16 52.73127 9.39443 27889 ft 410 kts 190°
2026-05-05 15:16 52.70303 9.38852 27894 ft 408 kts 190°
2026-05-05 15:17 52.67486 9.38261 27889 ft 408 kts 190°
2026-05-05 15:17 52.64667 9.37666 27890 ft 408 kts 190°
2026-05-05 15:17 52.61857 9.37064 27890 ft 407 kts 191°
2026-05-05 15:17 52.59052 9.36398 27890 ft 407 kts 192°
2026-05-05 15:18 52.56287 9.35676 27894 ft 407 kts 192°
2026-05-05 15:18 52.53464 9.34904 27892 ft 407 kts 192°
2026-05-05 15:18 52.50708 9.34143 27889 ft 407 kts 192°
2026-05-05 15:18 52.47882 9.33372 27891 ft 407 kts 192°
2026-05-05 15:19 52.45122 9.32634 27885 ft 407 kts 192°
2026-05-05 15:19 52.42332 9.31902 27883 ft 407 kts 192°
2026-05-05 15:19 52.39532 9.31177 27880 ft 407 kts 192°
2026-05-05 15:19 52.36737 9.30460 27880 ft 406 kts 192°
2026-05-05 15:20 52.33953 9.29744 27875 ft 406 kts 192°
2026-05-05 15:20 52.31160 9.29016 27873 ft 406 kts 192°
2026-05-05 15:20 52.28375 9.28200 27871 ft 404 kts 197°
2026-05-05 15:20 52.25742 9.26689 27874 ft 401 kts 207°
2026-05-05 15:21 52.23345 9.24394 27872 ft 399 kts 217°
2026-05-05 15:21 52.21272 9.21413 27872 ft 398 kts 227°
2026-05-05 15:21 52.19578 9.17853 27867 ft 398 kts 236°
2026-05-05 15:21 52.18036 9.14107 27869 ft 398 kts 236°
2026-05-05 15:22 52.16483 9.10374 27873 ft 398 kts 235°
2026-05-05 15:22 52.14924 9.06650 27868 ft 399 kts 235°
2026-05-05 15:22 52.13748 9.03849 27866 ft 399 kts 235°
2026-05-05 15:22 52.12183 9.00122 27866 ft 399 kts 235°
2026-05-05 15:23 52.10618 8.96390 27865 ft 399 kts 235°
2026-05-05 15:23 52.09054 8.92666 27864 ft 399 kts 235°
2026-05-05 15:23 52.07486 8.88941 27863 ft 399 kts 235°
2026-05-05 15:23 52.05915 8.85213 27859 ft 399 kts 235°
2026-05-05 15:24 52.04347 8.81495 27860 ft 399 kts 235°
2026-05-05 15:24 52.02794 8.77821 27860 ft 399 kts 235°
2026-05-05 15:24 52.01218 8.74097 27859 ft 399 kts 235°
2026-05-05 15:24 51.99671 8.70366 27858 ft 400 kts 238°
2026-05-05 15:25 51.98445 8.66317 27857 ft 401 kts 248°
2026-05-05 15:25 51.97664 8.61966 27858 ft 403 kts 256°
2026-05-05 15:25 51.97112 8.57512 27858 ft 404 kts 256°
2026-05-05 15:25 51.96546 8.53055 27856 ft 404 kts 256°
2026-05-05 15:26 51.95968 8.48601 27858 ft 404 kts 256°
2026-05-05 15:26 51.95388 8.44149 27860 ft 404 kts 256°
2026-05-05 15:26 51.94810 8.39697 27857 ft 404 kts 256°
2026-05-05 15:26 51.94232 8.35242 27860 ft 404 kts 256°
2026-05-05 15:27 51.93654 8.30783 27860 ft 404 kts 256°
2026-05-05 15:27 51.93076 8.26330 27860 ft 404 kts 256°
2026-05-05 15:27 51.92493 8.21864 27695 ft 406 kts 256°
2026-05-05 15:27 51.91905 8.17394 27436 ft 405 kts 255°
2026-05-05 15:28 51.91319 8.12943 27182 ft 405 kts 255°
2026-05-05 15:28 51.90731 8.08507 26747 ft 400 kts 255°
2026-05-05 15:28 51.90151 8.04119 26181 ft 396 kts 255°
2026-05-05 15:28 51.89579 7.99792 25635 ft 392 kts 255°
2026-05-05 15:29 51.89010 7.95486 25088 ft 389 kts 255°
2026-05-05 15:29 51.88442 7.91229 24544 ft 386 kts 255°
2026-05-05 15:29 51.87874 7.87000 24038 ft 383 kts 255°
2026-05-05 15:29 51.87308 7.82802 23526 ft 380 kts 255°
2026-05-05 15:30 51.86744 7.78642 22991 ft 377 kts 255°
2026-05-05 15:30 51.86185 7.74532 22511 ft 372 kts 255°
2026-05-05 15:30 51.85516 7.70527 22052 ft 365 kts 248°
2026-05-05 15:30 51.84507 7.66805 21604 ft 360 kts 242°
2026-05-05 15:31 51.83427 7.63169 21184 ft 356 kts 242°
2026-05-05 15:31 51.82358 7.59570 20755 ft 354 kts 242°
2026-05-05 15:31 51.81295 7.55987 20330 ft 352 kts 243°
2026-05-05 15:31 51.80239 7.52431 19890 ft 351 kts 243°
2026-05-05 15:32 51.79182 7.48871 19453 ft 350 kts 243°
2026-05-05 15:32 51.78129 7.45340 19007 ft 349 kts 243°
2026-05-05 15:32 51.77121 7.41971 18581 ft 349 kts 243°
2026-05-05 15:32 51.76077 7.38484 18124 ft 349 kts 243°
2026-05-05 15:33 51.75009 7.34925 17631 ft 348 kts 242°
2026-05-05 15:33 51.73958 7.31429 17148 ft 346 kts 242°
2026-05-05 15:33 51.72925 7.27991 16699 ft 344 kts 242°
2026-05-05 15:33 51.71890 7.24555 16234 ft 342 kts 242°
2026-05-05 15:34 51.70637 7.21332 15781 ft 339 kts 230°
2026-05-05 15:34 51.69025 7.18581 15312 ft 337 kts 219°
2026-05-05 15:34 51.67136 7.16375 14857 ft 335 kts 212°
2026-05-05 15:34 51.65188 7.14323 14400 ft 335 kts 212°
2026-05-05 15:35 51.63238 7.12256 13936 ft 335 kts 213°
2026-05-05 15:35 51.61296 7.10187 13448 ft 335 kts 213°
2026-05-05 15:35 51.59365 7.08128 12959 ft 333 kts 213°
2026-05-05 15:35 51.57434 7.06067 12489 ft 331 kts 213°
2026-05-05 15:36 51.55521 7.04027 12007 ft 330 kts 213°
2026-05-05 15:36 51.54388 7.02820 11723 ft 329 kts 213°
2026-05-05 15:36 51.52887 7.01235 11353 ft 327 kts 212°
2026-05-05 15:36 51.50989 6.99241 10862 ft 326 kts 213°
2026-05-05 15:37 51.49289 6.96859 10430 ft 325 kts 230°
2026-05-05 15:37 51.47939 6.93950 10029 ft 323 kts 233°
2026-05-05 15:37 51.46645 6.91039 9617 ft 320 kts 233°
2026-05-05 15:37 51.45357 6.88142 9176 ft 317 kts 233°
2026-05-05 15:38 51.44103 6.85319 8742 ft 303 kts 233°
2026-05-05 15:38 51.42914 6.82647 8356 ft 288 kts 233°
2026-05-05 15:38 51.41775 6.80087 8081 ft 279 kts 233°
2026-05-05 15:38 51.40673 6.77615 7804 ft 275 kts 233°
2026-05-05 15:39 51.39562 6.75126 7517 ft 274 kts 233°
2026-05-05 15:39 51.38456 6.72659 7232 ft 273 kts 233°
2026-05-05 15:39 51.37345 6.70196 6943 ft 272 kts 233°
2026-05-05 15:39 51.36233 6.67742 6654 ft 272 kts 233°
2026-05-05 15:40 51.35124 6.65296 6361 ft 271 kts 233°
2026-05-05 15:40 51.34019 6.62862 6052 ft 271 kts 233°
2026-05-05 15:40 51.32909 6.60434 5726 ft 270 kts 233°
2026-05-05 15:40 51.31803 6.58023 5377 ft 269 kts 233°
2026-05-05 15:41 51.30694 6.55616 4979 ft 268 kts 233°
2026-05-05 15:41 51.29587 6.53228 4579 ft 267 kts 233°
2026-05-05 15:41 51.28476 6.50841 4167 ft 267 kts 233°
2026-05-05 15:41 51.27268 6.48759 3777 ft 266 kts 214°
2026-05-05 15:42 51.25497 6.47692 3356 ft 265 kts 183°
2026-05-05 15:42 51.23710 6.48126 3024 ft 260 kts 155°
2026-05-05 15:42 51.22178 6.49619 3007 ft 255 kts 136°
2026-05-05 15:42 51.21081 6.51695 3001 ft 235 kts 118°
2026-05-05 15:43 51.20471 6.53992 3003 ft 219 kts 102°
2026-05-05 15:43 51.20286 6.56370 2900 ft 215 kts 87°
2026-05-05 15:43 51.20504 6.58701 2700 ft 212 kts 71°
2026-05-05 15:43 51.21102 6.60816 2460 ft 209 kts 56°
2026-05-05 15:44 51.21961 6.62655 2193 ft 209 kts 52°
2026-05-05 15:44 51.22849 6.64508 1898 ft 206 kts 51°
2026-05-05 15:44 51.23684 6.66253 1629 ft 191 kts 51°
2026-05-05 15:44 51.24448 6.67849 1407 ft 176 kts 51°
2026-05-05 15:45 51.25132 6.69278 1154 ft 161 kts 51°
2026-05-05 15:45 51.25778 6.70632 945 ft 145 kts 50°
2026-05-05 15:45 51.26376 6.71898 689 ft 145 kts 49°
2026-05-05 15:45 51.26987 6.73143 485 ft 141 kts 47°
2026-05-05 15:46 51.27556 6.74350 369 ft 142 kts 49°
2026-05-05 15:46 51.28141 6.75578 168 ft 140 kts 49°
2026-05-05 15:46 51.28624 6.76580 128 ft 105 kts 53°
2026-05-05 15:46 51.28966 6.77315 126 ft 60 kts 52°
2026-05-05 15:47 51.29189 6.77780 132 ft 45 kts 52°
2026-05-05 15:47 51.29279 6.77981 137 ft 25 kts 64°
2026-05-05 15:47 51.29256 6.78186 137 ft 7 kts 149°
2026-05-05 15:47 51.29249 6.78192 137 ft 2 kts 152°
2026-05-05 15:48 51.29233 6.78205 137 ft 5 kts 153°
2026-05-05 15:48 51.29198 6.78216 136 ft 5 kts 182°
2026-05-05 15:48 51.29165 6.78193 136 ft 7 kts 217°
2026-05-05 15:48 51.29132 6.78128 134 ft 9 kts 229°
2026-05-05 15:49 51.29093 6.78034 126 ft 11 kts 238°
2026-05-05 15:49 51.29040 6.77927 127 ft 14 kts 230°
2026-05-05 15:49 51.28978 6.77802 127 ft 14 kts 232°
2026-05-05 15:49 51.28901 6.77641 126 ft 20 kts 232°
2026-05-05 15:50 51.28815 6.77457 128 ft 23 kts 232°
2026-05-05 15:50 51.28714 6.77253 125 ft 25 kts 230°
2026-05-05 15:50 51.28608 6.77023 126 ft 27 kts 232°
2026-05-05 15:50 51.28494 6.76790 126 ft 24 kts 232°
2026-05-05 15:51 51.28424 6.76680 125 ft 11 kts 180°
2026-05-05 15:51 51.28361 6.76728 123 ft 9 kts 151°
2026-05-05 15:51 51.28314 6.76731 123 ft 6 kts 200°
2026-05-05 15:51 51.28281 6.76708 127 ft 5 kts 201°
2026-05-05 15:52 51.28256 6.76693 126 ft 0 kts 200°